When you browse on this site, cookies collect data to enhance your experience and personalize the content and advertising you see.
Visit our Privacy Policy to learn more. By continuing to use the site, you agree to this use of cookies and data.
  • In Romania
  • List of Countries
  • For 7 days
  • Water Temperature
  • Satellite Maps
  • Weather Map
  • Weather Widgets
  • user-avatar
    Login

    Hourly Weather Kvashonki

    Today, 19 July, Friday

    Time Temperature Precipitation Wind Pressure Humidity
    00:00 +13°C° 0 mm 1 mps 737 mmHg 94%
    01:00 +13°C° 0 mm 1 mps 738 mmHg 94%
    02:00 +13°C° 0 mm 1 mps 738 mmHg 94%
    03:00 +13°C° 0.3 mm 1 mps 738 mmHg 95%
    04:00 +13°C° 0.3 mm 1 mps 738 mmHg 95%
    05:00 +13°C° 0.3 mm 1 mps 738 mmHg 96%
    06:00 +15°C° 0.2 mm 1 mps 738 mmHg 91%
    07:00 +16°C° 0.2 mm 1 mps 738 mmHg 87%
    08:00 +18°C° 0.2 mm 1 mps 738 mmHg 83%
    09:00 +19°C° 0.6 mm 1 mps 738 mmHg 81%
    10:00 +18°C° 0.6 mm 2 mps 738 mmHg 80%
    11:00 +19°C° 0.6 mm 2 mps 738 mmHg 79%
    12:00 +19°C° 0.9 mm 2 mps 738 mmHg 80%
    13:00 +19°C° 0.9 mm 2 mps 737 mmHg 82%
    14:00 +19°C° 0.9 mm 1 mps 737 mmHg 83%
    15:00 +19°C° 0.3 mm 1 mps 737 mmHg 83%
    16:00 +19°C° 0.3 mm 1 mps 737 mmHg 83%
    17:00 +19°C° 0.3 mm 1 mps 737 mmHg 83%
    18:00 +18°C° 0 mm 1 mps 737 mmHg 86%
    19:00 +16°C° 0 mm 1 mps 737 mmHg 89%
    20:00 +15°C° 0 mm 1 mps 737 mmHg 92%
    21:00 +14°C° 0.1 mm 1 mps 738 mmHg 92%
    22:00 +12°C° 0.1 mm 0 mps 738 mmHg 93%
    23:00 +12°C° 0.1 mm 0 mps 738 mmHg 94%

    Tomorrow, 20 July, Saturday

    Time Temperature Precipitation Wind Pressure Humidity
    00:00 +11°C° 0 mm 0 mps 738 mmHg 94%
    01:00 +11°C° 0 mm 0 mps 738 mmHg 95%
    02:00 +12°C° 0 mm 1 mps 738 mmHg 95%
    03:00 +12°C° 0 mm 1 mps 739 mmHg 95%
    04:00 +13°C° 0 mm 1 mps 739 mmHg 95%
    05:00 +14°C° 0 mm 1 mps 739 mmHg 94%
    06:00 +15°C° 0.1 mm 1 mps 739 mmHg 92%
    07:00 +16°C° 0.1 mm 1 mps 740 mmHg 89%
    08:00 +17°C° 0.1 mm 2 mps 740 mmHg 86%
    09:00 +17°C° 0.2 mm 2 mps 740 mmHg 85%
    10:00 +18°C° 0.2 mm 3 mps 741 mmHg 84%
    11:00 +18°C° 0.2 mm 3 mps 741 mmHg 83%
    12:00 +18°C° 0.4 mm 3 mps 741 mmHg 83%
    13:00 +19°C° 0.4 mm 3 mps 741 mmHg 83%
    14:00 +19°C° 0.4 mm 3 mps 741 mmHg 82%
    15:00 +19°C° 1.2 mm 3 mps 741 mmHg 86%
    16:00 +18°C° 1.2 mm 3 mps 742 mmHg 89%
    17:00 +18°C° 1.2 mm 4 mps 742 mmHg 92%
    18:00 +17°C° 0.4 mm 3 mps 742 mmHg 93%
    19:00 +16°C° 0.4 mm 3 mps 742 mmHg 94%
    20:00 +16°C° 0.4 mm 3 mps 742 mmHg 95%
    21:00 +14°C° 0.1 mm 3 mps 742 mmHg 96%
    22:00 +14°C° 0.1 mm 3 mps 743 mmHg 97%
    23:00 +14°C° 0.1 mm 3 mps 743 mmHg 98%

    Day after tomorrow, 21 July, Sunday

    Time Temperature Precipitation Wind Pressure Humidity
    00:00 +13°C° 0 mm 3 mps 743 mmHg 98%
    01:00 +13°C° 0 mm 3 mps 743 mmHg 98%
    02:00 +13°C° 0 mm 3 mps 743 mmHg 98%
    03:00 +13°C° 0 mm 3 mps 744 mmHg 98%
    04:00 +13°C° 0 mm 3 mps 744 mmHg 97%
    05:00 +13°C° 0 mm 3 mps 744 mmHg 97%
    06:00 +14°C° 0 mm 3 mps 745 mmHg 94%
    07:00 +14°C° 0 mm 3 mps 745 mmHg 91%
    08:00 +16°C° 0 mm 3 mps 745 mmHg 89%
    09:00 +18°C° 0 mm 3 mps 745 mmHg 77%
    10:00 +20°C° 0 mm 3 mps 745 mmHg 65%
    11:00 +22°C° 0 mm 3 mps 746 mmHg 54%
    12:00 +23°C° 0 mm 4 mps 746 mmHg 51%
    13:00 +23°C° 0 mm 4 mps 746 mmHg 48%
    14:00 +25°C° 0 mm 4 mps 746 mmHg 46%
    15:00 +24°C° 0 mm 3 mps 746 mmHg 49%
    16:00 +24°C° 0 mm 3 mps 746 mmHg 52%
    17:00 +24°C° 0 mm 2 mps 746 mmHg 56%
    18:00 +21°C° 0 mm 2 mps 746 mmHg 63%
    19:00 +19°C° 0 mm 2 mps 746 mmHg 70%
    20:00 +16°C° 0 mm 2 mps 746 mmHg 77%
    21:00 +16°C° 0 mm 2 mps 746 mmHg 80%
    22:00 +15°C° 0 mm 2 mps 746 mmHg 83%
    23:00 +14°C° 0 mm 2 mps 746 mmHg 86%

    22 July, Monday

    Time Temperature Precipitation Wind Pressure Humidity
    00:00 +13°C° 0 mm 1 mps 746 mmHg 88%
    01:00 +13°C° 0 mm 1 mps 746 mmHg 91%
    02:00 +12°C° 0 mm 1 mps 746 mmHg 93%
    03:00 +12°C° 0 mm 1 mps 747 mmHg 92%
    04:00 +13°C° 0 mm 1 mps 747 mmHg 91%
    05:00 +13°C° 0 mm 1 mps 747 mmHg 89%
    06:00 +15°C° 0 mm 1 mps 747 mmHg 81%
    07:00 +18°C° 0 mm 1 mps 747 mmHg 72%
    08:00 +20°C° 0 mm 1 mps 747 mmHg 64%
    09:00 +21°C° 0 mm 1 mps 747 mmHg 59%
    10:00 +22°C° 0 mm 1 mps 746 mmHg 55%
    11:00 +24°C° 0 mm 1 mps 746 mmHg 50%
    12:00 +24°C° 0 mm 1 mps 746 mmHg 49%
    13:00 +24°C° 0 mm 1 mps 746 mmHg 47%
    14:00 +25°C° 0 mm 1 mps 746 mmHg 46%
    15:00 +24°C° 0 mm 1 mps 746 mmHg 49%
    16:00 +24°C° 0 mm 1 mps 746 mmHg 52%
    17:00 +24°C° 0 mm 1 mps 746 mmHg 55%
    18:00 +22°C° 0 mm 1 mps 746 mmHg 62%
    19:00 +20°C° 0 mm 1 mps 746 mmHg 68%
    20:00 +16°C° 0 mm 1 mps 746 mmHg 74%
    21:00 +15°C° 0 mm 1 mps 746 mmHg 77%
    22:00 +14°C° 0 mm 1 mps 746 mmHg 80%
    23:00 +13°C° 0 mm 1 mps 746 mmHg 83%

    23 July, Tuesday

    Time Temperature Precipitation Wind Pressure Humidity
    00:00 +13°C° 0 mm 1 mps 746 mmHg 85%
    01:00 +12°C° 0 mm 1 mps 746 mmHg 87%
    02:00 +11°C° 0 mm 1 mps 746 mmHg 90%
    03:00 +12°C° 0 mm 1 mps 746 mmHg 88%
    04:00 +12°C° 0 mm 1 mps 746 mmHg 87%
    05:00 +13°C° 0 mm 2 mps 746 mmHg 85%
    06:00 +14°C° 0 mm 2 mps 746 mmHg 78%
    07:00 +16°C° 0 mm 2 mps 746 mmHg 72%
    08:00 +18°C° 0 mm 2 mps 746 mmHg 65%
    09:00 +19°C° 0 mm 2 mps 746 mmHg 60%
    10:00 +20°C° 0 mm 2 mps 746 mmHg 56%
    11:00 +21°C° 0 mm 3 mps 746 mmHg 51%
    12:00 +23°C° 0 mm 2 mps 746 mmHg 50%
    13:00 +23°C° 0 mm 2 mps 746 mmHg 50%
    14:00 +23°C° 0 mm 2 mps 746 mmHg 50%
    15:00 +23°C° 0 mm 2 mps 746 mmHg 51%
    16:00 +23°C° 0 mm 2 mps 746 mmHg 52%
    17:00 +23°C° 0 mm 2 mps 746 mmHg 53%
    18:00 +20°C° 0 mm 2 mps 746 mmHg 57%
    19:00 +18°C° 0 mm 2 mps 747 mmHg 61%
    20:00 +15°C° 0 mm 2 mps 747 mmHg 65%
    21:00 +14°C° 0 mm 2 mps 747 mmHg 68%
    22:00 +13°C° 0 mm 2 mps 747 mmHg 71%
    23:00 +13°C° 0 mm 2 mps 747 mmHg 74%

    24 July, Wednesday

    Time Temperature Precipitation Wind Pressure Humidity
    00:00 +12°C° 0 mm 2 mps 747 mmHg 77%
    01:00 +12°C° 0 mm 1 mps 747 mmHg 81%
    02:00 +11°C° 0 mm 1 mps 747 mmHg 84%
    03:00 +12°C° 0 mm 1 mps 747 mmHg 83%
    04:00 +12°C° 0 mm 1 mps 747 mmHg 81%
    05:00 +13°C° 0 mm 1 mps 747 mmHg 80%
    06:00 +14°C° 0 mm 1 mps 747 mmHg 78%
    07:00 +15°C° 0 mm 1 mps 747 mmHg 76%
    08:00 +16°C° 0 mm 1 mps 747 mmHg 74%
    09:00 +17°C° 0 mm 2 mps 747 mmHg 68%
    10:00 +18°C° 0 mm 2 mps 748 mmHg 62%
    11:00 +19°C° 0 mm 3 mps 748 mmHg 56%
    12:00 +19°C° 0 mm 2 mps 747 mmHg 57%
    13:00 +18°C° 0 mm 2 mps 747 mmHg 58%
    14:00 +18°C° 0 mm 2 mps 747 mmHg 59%
    15:00 +18°C° 0 mm 2 mps 747 mmHg 61%
    16:00 +19°C° 0 mm 2 mps 747 mmHg 62%
    17:00 +19°C° 0 mm 2 mps 747 mmHg 63%
    18:00 +18°C° 0 mm 2 mps 747 mmHg 71%
    19:00 +16°C° 0 mm 2 mps 747 mmHg 79%
    20:00 +15°C° 0 mm 2 mps 747 mmHg 87%
    21:00 +14°C° 0 mm 2 mps 747 mmHg 89%
    22:00 +13°C° 0 mm 2 mps 748 mmHg 92%
    23:00 +12°C° 0 mm 1 mps 748 mmHg 94%
    Show more